Regional Weather Roundup
Issued by NWS

Home | Current Version | Previous Version | Text Only | Print | Product List | Glossary Off
Versions: 1 2 3 4 5 6 7 8 9 10 11 12 13 14 15 16 17 18 19 20 21 22 23 24 25 26 27 28 29 30 31 32 33 34 35 36 37 38 39 40 41 42 43 44 45 46 47 48 49 50

000
ASUS43 KMKX 061221
RWRWI

WISCONSIN REGIONAL WEATHER ROUNDUP
NATIONAL WEATHER SERVICE MILWAUKEE/SULLIVAN WI
700 AM CDT MON JUL 06 2015

NOTE: "FAIR" INDICATES FEW OR NO CLOUDS BELOW 12,000 FEET WITH NO
SIGNIFICANT WEATHER AND/OR OBSTRUCTIONS TO VISIBILITY.

WIZ001-002-006>008-014>016-023>028-061300-
NORTHWEST WISCONSIN

CITY           SKY/WX    TMP DP  RH WIND       PRES   REMARKS
SUPERIOR ARPT  DRIZZLE   66  66  99 NE8       29.83S
6HR MIN TEMP:  64; 6HR MAX TEMP:  67; 6HR PCP:  0.05;

ASHLAND        CLOUDY    67  67 100 E3        29.85R
6HR MIN TEMP:  65; 6HR MAX TEMP:  68; 6HR PCP:  0.64;

HAYWARD        RAIN      67  65  93 S3        29.84R FOG
6HR MIN TEMP:  66; 6HR MAX TEMP:  70; 6HR PCP:  1.17;

SIREN          RAIN      67  66  95 CALM      29.83S
6HR MIN TEMP:  67; 6HR MAX TEMP:  68; 6HR PCP:  1.28;

CUMBERLAND     RAIN      64  64 100 SE8       29.84F
RICE LAKE      HVY RAIN  66  65  94 CALM      29.87S
6HR MIN TEMP:  66; 6HR MAX TEMP:  71; 6HR PCP:  1.78;

CHETEK         HVY RAIN  67  67  98 CALM      29.86R
6HR MIN TEMP:  67; 6HR MAX TEMP:  72; 6HR PCP:  1.55;

LADYSMITH      RAIN      67  66  96 SE8       29.89R
6HR MIN TEMP:  67; 6HR MAX TEMP:  71;

EAU CLAIRE     RAIN      68  67  96 NE13      29.82F FOG
6HR MIN TEMP:  68; 6HR MAX TEMP:  73; 6HR PCP:  1.20;

MENOMONIE      RAIN      68  68  99 CALM      29.85R
6HR MIN TEMP:  68; 6HR MAX TEMP:  74; 6HR PCP:  4.39;

NEW RICHMOND   RAIN      67  66  99 E3        29.84S
6HR MIN TEMP:  66; 6HR MAX TEMP:  73; 6HR PCP:  2.85;

OSCEOLA        HVY RAIN  67  67 100 SE7       29.85S
6HR MIN TEMP:  67; 6HR MAX TEMP:  72; 6HR PCP:  2.38;

$$

WIZ003>005-009-010-017-018-061300-
NORTH CENTRAL WISCONSIN

CITY           SKY/WX    TMP DP  RH WIND       PRES   REMARKS
MANITOWISH WTR RAIN      66  66 100 S6        29.88F
6HR MIN TEMP:  66; 6HR MAX TEMP:  69; 6HR PCP:  0.12;

ARBOR VITAE    LGT RAIN  67  65  92 SW5       29.89S
6HR MIN TEMP:  67; 6HR MAX TEMP:  72;

WOODRUFF       LGT RAIN  67  65  92 SW5       29.89S
6HR MIN TEMP:  67; 6HR MAX TEMP:  72;

RHINELANDER    CLOUDY    68  64  87 SW6       29.90F
6HR MIN TEMP:  68; 6HR MAX TEMP:  69;

EAGLE RIVER    CLOUDY    68  63  83 SW5       29.89F HAZE
LAND O LAKES   CLOUDY    69  64  86 SW5       29.90S HAZE
6HR MIN TEMP:  68; 6HR MAX TEMP:  70;

PHILLIPS       RAIN      66  66 100 CALM      29.85F
6HR MIN TEMP:  66; 6HR MAX TEMP:  69; 6HR PCP:  0.40;

TOMAHAWK       CLOUDY    66  63  90 CALM      29.89F FOG
6HR MIN TEMP:  66; 6HR MAX TEMP:  67;

MEDFORD        CLOUDY    66  64  94 CALM      29.88S
6HR MIN TEMP:  66; 6HR MAX TEMP:  69; 6HR PCP:  0.07;

MERRILL        CLOUDY    68  66  93 SE3       29.88F FOG
6HR MIN TEMP:  67; 6HR MAX TEMP:  70;

$$

WIZ029-030-035-036-043>047-061300-
CENTRAL WISCONSIN

CITY           SKY/WX    TMP DP  RH WIND       PRES   REMARKS
WAUSAU         CLOUDY    67  64  90 SE7       29.86F FOG
6HR MIN TEMP:  67; 6HR MAX TEMP:  71;

MOSINEE        MOSUNNY   66  64  94 SE3       29.88F FOG
MARSHFIELD     LGT RAIN  69  63  81 S12       29.86F
6HR MIN TEMP:  67; 6HR MAX TEMP:  70;

STEVENS POINT  CLOUDY    66  63  89 S6        29.88F FOG
6HR MIN TEMP:  65; 6HR MAX TEMP:  68;

WAUPACA        CLOUDY    68  67  95 SE7       29.90F FOG
6HR MIN TEMP:  66; 6HR MAX TEMP:  69;

WAUTOMA        CLOUDY    68  67  96 SE7       29.90F FOG
6HR MIN TEMP:  65; 6HR MAX TEMP:  68;

WISC RAPIDS    CLOUDY    68  63  84 S6        29.87F
6HR MIN TEMP:  67; 6HR MAX TEMP:  70;

CAMP DOUGLAS   CLOUDY    72  72 100 S10       29.84F
$$

WIZ011>013-019>022-031-037>040-048>050-061300-
NORTHEAST WISCONSIN

CITY           SKY/WX    TMP DP  RH WIND       PRES   REMARKS
ANTIGO         CLOUDY    64  63  98 S6        29.91S FOG
SHAWANO        CLOUDY    68  64  86 S5        29.90F
6HR MIN TEMP:  67; 6HR MAX TEMP:  70;

OCONTO         CLOUDY    67  67 100 S3        29.91F
6HR MIN TEMP:  65; 6HR MAX TEMP:  68;

STURGEON BAY   CLOUDY    64  59  82 S9        29.96F
6HR MIN TEMP:  63; 6HR MAX TEMP:  66;

GREEN BAY      CLOUDY    67  64  90 SE7       29.92F FOG
6HR MIN TEMP:  64; 6HR MAX TEMP:  67;

MANITOWOC      PTSUNNY   66  63  90 MISG      29.96S FOG
6HR MIN TEMP:  60; 6HR MAX TEMP:  66;

APPLETON       PTSUNNY   68  63  83 SW8       29.93F
CLINTONVILLE   CLOUDY    64  63  94 S6        29.89F FOG
OSHKOSH        CLOUDY    68  63  84 S9        29.91F HAZE
6HR MIN TEMP:  65; 6HR MAX TEMP:  68;

$$

WIZ032>034-041-042-053>061-061300-
SOUTHWEST WISCONSIN

CITY           SKY/WX    TMP DP  RH WIND       PRES   REMARKS
LA CROSSE      CLOUDY    74  67  78 S15       29.83S HAZE
6HR MIN TEMP:  74; 6HR MAX TEMP:  75;

SPARTA         CLOUDY    72  64  76 S7        29.85S
6HR MIN TEMP:  71; 6HR MAX TEMP:  72;

VIROQUA        CLOUDY    69  68  96 S10       29.86F
6HR MIN TEMP:  69; 6HR MAX TEMP:  69;

BOSCOBEL       CLOUDY    73  67  81 S5        29.87S HAZE
6HR MIN TEMP:  71; 6HR MAX TEMP:  73;

PRAIRIE DU CHI CLOUDY    73  66  78 CALM      29.86S
6HR MIN TEMP:  71; 6HR MAX TEMP:  73;

PLATTEVILLE    CLOUDY    70  68  93 S10       29.89F
6HR MIN TEMP:  67; 6HR MAX TEMP:  70;

$$

WIZ056-057-062-063-064-067-068-061300-
SOUTH CENTRAL WISCONSIN

CITY           SKY/WX    TMP DP  RH WIND       PRES   REMARKS
REEDSBURG      CLOUDY    70  66  87 S9        29.87F
6HR MIN TEMP:  68; 6HR MAX TEMP:  70;

BARABOO/DELLS  CLOUDY    70  64  81 S12       29.89F HAZE
6HR MIN TEMP:  67; 6HR MAX TEMP:  70;

LONE ROCK      CLOUDY    71  66  84 E6        29.88F HAZE
6HR MIN TEMP:  69; 6HR MAX TEMP:  72;

MINERAL POINT  CLOUDY    70  66  88 SE12      29.90F FOG
MADISON        CLOUDY    70  64  81 S9        29.92S HAZE
6HR MIN TEMP:  69; 6HR MAX TEMP:  72;

MIDDLETON      CLOUDY    70  66  87 S8        29.92F
6HR MIN TEMP:  68; 6HR MAX TEMP:  71;

WATERTOWN      CLOUDY    66  66 100 SE5       29.94S FOG
6HR MIN TEMP:  62; 6HR MAX TEMP:  66;

MONROE         CLOUDY    68  64  88 S12       29.94S FOG
JANESVILLE     CLOUDY    70  66  88 S12       29.94F FOG
$$

WIZ051-052-058>065-066-070>072-061300-
SOUTHEAST WISCONSIN

CITY           SKY/WX    TMP DP  RH WIND       PRES   REMARKS
MILWAUKEE      PTSUNNY   68  62  81 S7        29.97F
6HR MIN TEMP:  62; 6HR MAX TEMP:  68;

WAUKESHA       SUNNY     63  61  94 S6        29.98F FOG
MILWAUKEE/TIMM PTSUNNY   68  61  77 S7        29.98S
RACINE         SUNNY     68  62  81 S7        30.00S HAZE
6HR MIN TEMP:  63; 6HR MAX TEMP:  68;

BURLINGTON     MOSUNNY   62  61  97 CALM      29.97F FOG
6HR MIN TEMP:  55; 6HR MAX TEMP:  62;

KENOSHA        MOSUNNY   67  63  87 S7        29.98F FOG
6HR MIN TEMP:  59; 6HR MAX TEMP:  67;

FOND DU LAC    CLOUDY    71  64  78 S9        29.93F
6HR MIN TEMP:  65; 6HR MAX TEMP:  71;

SHEBOYGAN      PTSUNNY   64  61  90 CALM      29.96S FOG
6HR MIN TEMP:  58; 6HR MAX TEMP:  64;

WEST BEND      PTSUNNY   64  61  88 SE3       29.97S FOG
JUNEAU         CLOUDY    66  63  90 SE8       29.94F FOG
6HR MIN TEMP:  64; 6HR MAX TEMP:  67;

$$

LSZ147-162-061300-
LAKE SUPERIOR

STATION/POSITION TIME  TEMP    WIND        PRES    WAVE
                       AIR SEA DIR/SP/G            HT/PER
                 (UTC) (F)     (DEG/KT/KT) (MB)    (FT/S)
W MID LAKE BUOY  1150   49 39  240/  6/  8 1010.6R   1/ 4
DEVILS ISLAND    1200   64     300/ 11/ 12 1010.7R
PORT WING        1100   64     350/  4/  4 1010.5R
SAXON HARBOR     1100   67        CALM     1010.2R
$$

LMZ867-665-643>646-061300-
LAKE MICHIGAN

STATION/POSITION TIME  TEMP    WIND        PRES    WAVE
                       AIR SEA DIR/SP/G            HT/PER
                 (UTC) (F)     (DEG/KT/KT) (MB)    (FT/S)
CHAMBERS ISLAND  1100   69     170/  5/ 10 1013.5R


USA.gov is the U.S. government's official web portal to all federal, state and local government web resources and services.